Tracking 31027 objects as of 19-Jul-2025
HD Live streaming from Space Station
objects crossing your sky now

STARLINK-4091

Track STARLINK-4091 now!
10-day predictions
STARLINK-4091 is classified as:


NORAD ID: 52830
Int'l Code: 2022-062A
Perigee: 546.0 km
Apogee: 547.8 km
Inclination: 53.2 °
Period: 95.4 minutes
Semi major axis: 6917 km
RCS: Unknown
Launch date: June 17, 2022
Source: United States (US)
Launch site: AIR FORCE EASTERN TEST RANGE (AFETR)
Your satellite tracking list
Your tracking list is empty




NASA's NSSDC Master Catalog

Two Line Element Set (TLE):
1 52830U 22062A   25199.49211568  .00000427  00000-0  44906-4 0  9992
2 52830  53.2187   5.6655 0001244  92.1445 267.9690 15.08836829170422
Source of the keplerian elements: AFSPC